Theta_e
311 307 304 306 314 315 321 327 326 326 332 335 333 340 340 350 351 351 350 357 363 363 364 364 363 361 361 361 361 360 361 362
306 305 310 312 316 319 320 325 327 327 329 339 344 343 344 351 350 347 346 357 363 363 362 363 363 362 362 361 360 360 362 361
303 305 311 316 318 320 319 322 323 325 329 333 345 347 346 348 347 345 348 356 361 363 363 363 363 362 361 360 360 360 362 361
299 303 309 316 320 321 320 323 323 322 330 335 347 345 346 347 344 344 351 353 359 362 363 362 362 361 360 360 360 361 361 361
301 303 306 311 320 320 319 320 321 326 331 337 342 346 348 346 344 347 349 350 356 358 361 362 362 361 360 359 360 360 360 360
301 302 304 312 316 322 321 319 328 329 331 333 342 347 347 344 344 347 345 346 348 355 356 358 358 361 360 360 359 359 359 359
301 302 306 313 312 320 325 321 324 327 344 345 346 346 343 341 343 345 344 344 344 344 348 348 353 357 359 359 359 358 359 358
307 308 307 311 312 318 320 320 320 329 346 347 348 345 341 339 340 342 343 343 344 344 345 344 343 352 351 350 350 351 351 354
307 310 311 310 311 320 318 316 320 324 336 344 345 346 342 341 342 343 346 345 346 349 350 346 345 346 346 346 346 347 349 352
308 310 310 309 312 312 316 318 324 325 338 339 341 344 344 342 343 344 346 346 347 352 353 357 349 346 349 346 347 346 347 353
308 310 310 312 310 311 314 319 323 336 340 338 343 345 347 347 348 347 347 347 348 353 354 363 352 350 351 351 350 351 352 355
307 308 309 308 309 311 313 319 323 325 335 339 340 345 350 348 347 350 351 351 351 353 358 361 367 357 358 359 356 357 355 356
306 307 307 310 305 307 314 318 318 320 330 334 339 343 346 351 355 352 355 355 358 358 360 365 364 369 366 365 356 359 360 362
304 306 307 307 300 308 313 314 313 316 325 331 337 340 346 350 356 360 356 359 361 355 360 363 368 367 366 362 363 360 360 363
301 306 305 305 302 308 312 312 312 314 319 328 333 340 347 350 359 361 364 362 362 365 356 361 366 365 366 366 364 363 364 364
299 303 305 302 302 306 310 311 312 315 319 327 331 336 344 349 356 358 361 362 362 364 366 359 361 365 365 360 362 364 364 361
301 305 303 302 302 305 309 310 310 315 319 325 329 336 343 348 355 355 356 351 357 359 365 363 361 354 353 354 356 360 359 360
301 304 303 303 301 305 308 309 310 312 318 323 328 332 336 340 345 353 356 357 356 356 360 359 360 360 358 353 355 354 356 357
297 302 304 302 299 303 306 309 311 315 320 323 324 328 333 334 338 341 346 354 358 359 359 361 361 362 363 361 359 358 353 353
299 299 294 302 291 301 305 305 309 312 316 320 322 325 331 333 336 339 341 345 353 359 361 360 361 357 358 352 350 353 357 355
Wind_Speed
8 15 17 18 22 20 14 14 6 3 13 11 12 13 15 22 25 22 17 16 15 17 18 17 17 17 16 16 15 15 15 14
15 21 24 29 23 20 12 13 6 7 14 10 9 15 20 24 24 21 19 18 16 17 19 18 18 17 16 16 16 16 14 14
17 25 26 24 26 27 4 11 8 6 16 12 10 21 21 22 21 19 19 17 16 17 18 18 18 16 16 16 15 15 15 13
20 23 25 27 25 20 6 10 16 10 19 15 16 19 20 21 19 20 20 16 15 16 17 17 16 16 15 15 15 15 14 13
23 23 24 27 26 4 9 16 4 10 16 12 18 19 19 19 19 20 20 16 13 14 14 15 14 14 14 13 13 13 13 12
24 22 24 24 25 13 11 15 11 8 11 15 20 19 19 20 20 21 18 17 14 13 14 12 11 13 13 14 14 14 13 13
29 28 23 19 24 15 15 16 10 6 14 10 20 19 18 18 19 18 16 15 15 15 13 12 11 11 11 11 10 10 10 10
22 23 23 25 21 23 18 17 14 12 21 20 16 15 18 18 18 18 19 17 15 13 12 12 11 11 9 10 7 7 8 8
25 25 23 24 23 19 19 18 11 16 17 31 25 10 17 18 19 19 19 14 17 12 12 12 10 7 5 6 6 6 8 9
24 24 23 22 23 17 17 15 13 10 22 17 17 16 14 17 18 19 18 16 17 14 11 7 10 8 8 7 7 7 8 9
27 22 24 19 18 18 16 14 12 20 17 14 11 14 14 12 14 15 15 14 16 15 9 5 11 8 6 7 8 9 9 10
25 25 23 17 15 14 14 15 12 13 17 19 16 12 10 12 11 13 14 12 14 15 10 6 3 8 5 5 8 7 8 9
23 26 25 11 18 17 15 16 13 12 10 7 13 15 11 7 11 12 13 13 11 14 11 5 4 1 2 2 4 4 4 8
27 21 25 15 23 21 17 14 15 17 12 14 14 16 15 10 7 12 12 12 11 11 14 9 5 3 2 3 3 3 4 4
27 25 21 20 21 23 21 18 16 13 15 16 11 6 10 13 10 10 9 10 8 5 12 13 6 4 4 4 3 3 2 3
25 29 23 24 21 20 22 21 17 14 17 16 14 11 11 6 13 10 10 7 7 3 4 9 8 5 3 4 3 2 1 2
24 23 24 23 23 16 16 20 19 17 17 15 15 13 11 9 15 11 9 7 5 8 5 4 4 6 6 6 5 3 3 3
21 23 24 23 22 20 19 19 19 18 16 15 14 17 15 11 8 13 13 14 12 9 6 5 5 5 4 4 5 6 5 5
27 24 24 21 22 24 22 21 20 19 16 15 15 15 18 14 11 8 9 8 12 12 10 6 5 2 2 1 2 2 5 7
26 22 17 22 14 18 22 17 17 18 17 17 16 14 17 16 13 11 10 10 7 7 10 10 8 5 3 3 5 4 3 2
Wind_Direction
240 237 243 256 246 240 233 117 129 138 101 63 102 107 121 111 116 124 133 128 129 134 130 135 133 134 138 135 134 136 137 134
254 239 226 250 265 271 214 121 154 91 89 94 92 116 119 121 125 135 142 126 135 135 142 137 136 139 139 138 139 139 139 135
231 238 250 242 249 270 242 131 159 127 112 107 100 111 131 127 136 143 131 129 138 133 136 140 141 142 141 142 142 143 141 139
230 233 234 251 254 245 303 195 187 154 120 109 119 138 139 134 144 144 123 137 139 135 138 140 143 145 146 146 145 144 143 142
241 224 239 234 251 222 201 265 147 172 111 127 139 145 141 142 143 127 126 132 140 140 138 135 142 145 145 145 146 144 143 143
236 248 228 237 238 189 231 231 74 11 88 157 134 149 142 146 137 127 140 140 146 145 149 151 154 150 153 153 153 150 150 154
228 226 246 233 234 206 222 225 137 138 62 30 133 146 154 149 142 135 145 149 154 157 156 159 157 161 151 150 147 148 152 155
235 240 236 252 248 186 190 235 147 118 94 49 338 158 163 159 150 148 146 159 152 161 162 164 159 146 163 162 168 178 179 174
245 246 252 250 252 172 178 210 217 158 131 150 190 218 177 169 160 157 151 162 155 161 163 168 144 152 166 161 172 187 189 174
232 251 253 260 251 243 200 204 196 211 155 162 172 179 203 177 163 157 150 160 150 151 166 172 134 163 173 168 176 181 189 179
246 250 251 249 251 264 176 228 215 117 136 161 173 174 193 188 159 153 150 158 156 146 166 187 141 168 194 181 179 188 179 179
225 245 258 236 240 261 182 203 136 160 158 162 168 177 205 173 160 151 148 151 150 150 157 205 187 172 209 183 182 177 175 179
230 219 239 219 232 238 212 191 166 194 177 187 175 171 195 156 147 152 147 149 148 142 148 181 226 281 177 190 215 178 201 179
216 221 223 189 220 224 230 215 221 183 189 198 193 183 167 179 130 137 140 146 148 167 158 172 188 202 215 243 198 252 194 180
207 217 210 198 220 214 215 215 214 192 200 201 176 139 155 162 106 99 117 129 149 150 156 165 189 199 207 246 249 229 176 58
217 195 212 203 220 232 206 205 212 198 213 193 176 163 158 183 130 113 108 103 139 179 204 161 172 202 220 220 223 235 52 181
205 200 200 213 206 221 221 201 204 200 210 195 174 166 152 156 137 139 132 140 177 190 218 166 187 180 211 215 189 193 243 235
214 223 188 201 211 218 235 181 208 198 207 203 176 163 155 151 143 152 157 164 174 181 180 199 204 216 195 217 204 191 190 209
217 200 179 191 217 198 235 182 207 195 204 199 192 178 157 155 147 144 150 166 172 171 179 195 237 252 238 328 341 258 203 213
210 187 186 186 197 214 219 182 201 207 211 188 198 191 156 153 155 157 160 161 164 164 165 178 200 221 256 269 261 268 260 98